User: anonymous   Login
Location: Unspecified
(0.0000°N, 0.0000°E)
Time: 11:13:39
(UTC+00:00)
Language:

MOST - Orbit

View from above orbital plane
View from above orbital plane
View from above satellite
View from above satellite

Ground track
Ground track

The orbit data is extracted from the following two-line orbital elements,

1 27843U 03031D   18019.56149157 -.00000018 +00000-0 +11731-4 0  9995
2 27843 098.7134 029.5936 0010989 108.4978 251.7394 14.20561721754675
Epoch (UTC): 19 January 2018 13:28:32
Eccentricity: 0.0010989
inclination: 98.7134°
perigee height: 815 km
apogee height: 831 km
right ascension of ascending node: 29.5936°
argument of perigee: 108.4978°
revolutions per day: 14.20561721
mean anomaly at epoch: 251.7394°
orbit number at epoch: 75467

The dashed part of the orbit path shows where the satellite is in the earth's shadow,  

DLR